Williamson, New York
Current Conditions -  °F | °C
As of 4:54 AM on Friday 31 Oct 2014 (Local Time) from KROC Reporting Station
Overcast Overcast  
Wind Chill: 42°   Ceiling: 8000
Heat Index: 42°   Visibility: 10mi
Dew Point: 37°   Wind: 0mph
Humidity: 82%   Direction: NA
Pressure: 29.99"   Gusts: NA
Location:  43.22°N, 77.19°W
Report Text: KROC 310854Z 00000KT 10SM BKN080 OVC100 06/03 A2999 RMK AO2 SLP161 BINOVC T00560028 56010
Loading
Personal Weather Stations






























Interactive Weather Map
Tropical Storm Tracking
New forecast layout! Learn more

10-Day Weather Forecast

Advertisements
Track Severe Weather on mobile